Weather History for KPHP - March, 2013

Change the Weather History Date:

Sunday, March 10, 2013

  Actual Average Record
Temperature  
Mean Temperature 27 °F 32 °F  
Max Temperature 39 °F 45 °F 84 °F (1972)
Min Temperature 14 °F 20 °F -15 °F (1948)
Degree Days  
Heating Degree Days 38 33  
Month to date heating degree days 317 342  
Since 1 July heating degree days 5343 5707  
Cooling Degree Days 0 0  
Month to date cooling degree days 0 0  
Year to date cooling degree days 0 0  
Moisture  
Dew Point 10 °F    
Average Humidity 56    
Maximum Humidity 84    
Minimum Humidity 27    
Precipitation  
Precipitation 0.00 in 0.04 in 0.25 in (1956)
Month to date precipitation T 0.40  
Year to date precipitation 0.82 1.18  
Sea Level Pressure  
Sea Level Pressure 30.20 in    
Wind  
Wind Speed 11 mph (North)    
Max Wind Speed 22 mph    
Max Gust Speed 28 mph    
Visibility 10 miles    
Events      
T = Trace of Precipitation, MM = Missing Value Source: NWS Daily Summary

Daily Weather History Graph

Daily Weather History Graph

Search for Another Location

Airport or City:

Trip Planner

Search our weather history database for the weather conditions in past years. The results will help you decide how hot, cold, wet, or windy it might be!

Date:

Astronomy

Mar. 10, 2013 Rise Set
Actual Time 7:07 AM MDT 6:46 PM MDT
Civil Twilight 6:38 AM MDT 7:15 PM MDT
Nautical Twilight 6:04 AM MDT 7:49 PM MDT
Astronomical Twilight 5:31 AM MDT 8:22 PM MDT
Moon 6:09 AM MDT (3/10) 5:56 PM MDT (3/10)
Length of Visible Light 12h 37m
Length of Day
11h 39m
Waning Crescent, 1% of the Moon is Illuminated
Mar 10
Waning Crescent
Mar 11
New
Mar 19
First Quarter
Mar 27
Full
Apr 2
Last Quarter

Hourly Weather History & Observations

Time (MDT) Temp. Windchill Dew Point Humidity Pressure Visibility Wind Dir Wind Speed Gust Speed Precip Events Conditions
12:55 AM 21.9 °F 8.7 °F 17.1 °F 82% 30.19 in 10.0 mi NNW 15.0 mph - N/A   Clear
1:55 AM 19.9 °F 5.7 °F 15.1 °F 81% 30.20 in 10.0 mi NNW 16.1 mph - N/A   Clear
3:55 AM 19.0 °F 6.8 °F 14.0 °F 81% 30.21 in 10.0 mi NNW 11.5 mph - N/A   Clear
4:55 AM 18.0 °F 3.6 °F 12.9 °F 81% 30.23 in 10.0 mi NNW 15.0 mph - N/A   Clear
5:55 AM 18.0 °F 2.6 °F 12.0 °F 78% 30.26 in 10.0 mi NNW 17.3 mph - N/A   Clear
6:55 AM 16.0 °F 2.3 °F 10.9 °F 81% 30.28 in 10.0 mi NNW 12.7 mph - N/A   Clear
7:55 AM 17.1 °F 3.6 °F 12.0 °F 81% 30.30 in 10.0 mi NNW 12.7 mph - N/A   Clear
8:55 AM 21.0 °F 8.6 °F 12.9 °F 71% 30.30 in 10.0 mi North 12.7 mph - N/A   Clear
9:55 AM 24.1 °F 10.6 °F 12.9 °F 62% 30.30 in 10.0 mi NNW 17.3 mph 23.0 mph N/A   Clear
10:55 AM 27.0 °F 13.5 °F 12.0 °F 53% 30.28 in 10.0 mi North 19.6 mph 27.6 mph N/A   Clear
11:55 AM 32.0 °F 20.5 °F 10.9 °F 42% 30.26 in 10.0 mi North 18.4 mph 27.6 mph N/A   Clear
12:55 PM 34.0 °F 24.2 °F 10.0 °F 37% 30.23 in 10.0 mi North 15.0 mph 21.9 mph N/A   Clear
1:55 PM 36.0 °F 26.3 °F 9.0 °F 33% 30.21 in 10.0 mi North 16.1 mph 23.0 mph N/A   Clear
2:55 PM 37.9 °F 29.6 °F 8.1 °F 29% 30.19 in 10.0 mi North 13.8 mph 18.4 mph N/A   Clear
3:55 PM 39.0 °F 32.3 °F 8.1 °F 28% 30.17 in 10.0 mi NNE 10.4 mph 17.3 mph N/A   Clear
4:55 PM 37.9 °F 30.9 °F 7.0 °F 28% 30.16 in 10.0 mi North 10.4 mph - N/A   Clear
5:55 PM 37.0 °F 31.0 °F 7.0 °F 29% 30.15 in 10.0 mi North 8.1 mph - N/A   Clear
6:55 PM 30.0 °F 23.2 °F 7.0 °F 38% 30.17 in 10.0 mi NE 6.9 mph - N/A   Clear
7:55 PM 24.1 °F 18.2 °F 7.0 °F 48% 30.16 in 10.0 mi NE 4.6 mph - N/A   Clear
8:55 PM 23.0 °F 18.4 °F 8.1 °F 53% 30.14 in 10.0 mi East 3.5 mph - N/A   Clear
9:55 PM 18.0 °F 9.8 °F 7.0 °F 62% 30.14 in 10.0 mi East 5.8 mph - N/A   Clear
10:55 PM 18.0 °F 12.7 °F 8.1 °F 65% 30.13 in 10.0 mi East 3.5 mph - N/A   Clear
11:55 PM 18.0 °F - 9.0 °F 68% 30.10 in 10.0 mi Calm Calm - N/A   Clear
12:55 AM 15.1 °F 9.4 °F 9.0 °F 77% 30.06 in 10.0 mi ENE 3.5 mph - N/A   Clear